Location: Drocourt
(49.0571°N, 1.7669°E)
Time: 15:52:34
(UTC+00:00)

Vanguard 3 - Pass Details

Date: 22 April 2024
Orbit: 509 x 3233 km, 33.3° (Epoch: 23 May)

Event Time Altitude Azimuth Distance (km) Brightness Sun altitude
Rises 02:43:05 0° 221° (SW) 6,912 - -17.9°
Reaches altitude 10° 02:49:09 10° 211° (SSW) 5,570 - -17.2°
Exits shadow 02:52:25 16° 203° (SSW) 4,869 10.5 -16.8°
Maximum altitude 03:00:48 26° 164° (SSE) 3,500 10.1 -15.8°
Drops below altitude 10° 03:08:54 10° 113° (ESE) 3,784 10.9 -14.8°
Sets 03:12:03 0° 101° (E) 4,397 11.5 -14.4°
